{"data":{"norad_id":62032,"intl_designator":"2024-216A","name":"STARLINK-32637","alt_names":[],"object_type":"PAYLOAD","status":"ACTIVE","operator":null,"country":"US","launch_date":"2024-11-21","launch_site_code":"AFETR","launch_vehicle":null,"mission":null,"orbit_class":"UNKNOWN","rcs_meters":null,"size_class":null,"mass_kg":null,"dimensions":null,"purposes":["comms"],"wikipedia_slug":null,"has_3d_model":false,"image_url":null,"decayed_at":null,"tle_current":{"epoch":"2026-09-21T14:38:25.439424Z","epoch_age_seconds":89634,"freshness":"FRESH","line1":"1 62032U 24216A   26264.61001666  .00007815  00000+0  29322-3 0  9995","line2":"2 62032  43.0014 229.4779 0001606 267.4382  92.6286 15.27579803103848","mean_motion":15.27579803,"eccentricity":0.0001606,"inclination_deg":43.0014,"raan_deg":229.4779,"arg_perigee_deg":267.4382,"mean_anomaly_deg":92.6286,"bstar":0.00029322,"rev_number":10384,"period_min":94.266760870496,"perigee_km":481.94777934683,"apogee_km":484.15159251035,"semimajor_km":6861.1866859286,"source":"CELESTRAK","updated_at":"2026-09-22T09:00:49.486207Z"}}}